Flag Weather past 2 weeks in Tübingen, Baden-Württemberg, Germany

Now
43 °F

Clear.


Feels Like: 43 °F
Forecast: 42 / 49 °F
Wind: 1 mph from North

Location: Stuttgart-Echterdingen

Current Time: Nov 24, 2014 at 6:33:08 AM

Latest Report: Nov 24, 2014 at 5:50 AM


Visibility: 10 mi

Pressure: 30.12 "Hg

Humidity: 93%

Dew point: 41 °F

Location of TübingenLocation

Historic Weather in Tübingen — Graph

°F

Tübingen temperature yesterday

Maximum temperature yesterday: 54 °F (at 1:50 PM)
Minimum temperature yesterday: 34 °F (at 7:50 AM)
Average temperature yesterday: 42 °F

Past Weeks' High & Low Weather Summary

 TemperatureHumidityPressure
High57 °F (Nov 22, 2:20 PM)100% (Nov 9, 5:20 AM)30.30 "Hg (Nov 9, 5:20 AM)
Low34 °F (Nov 9, 7:50 AM)63% (Nov 16, 3:20 PM)29.53 "Hg (Nov 15, 10:20 PM)
Average44 °F92%29.89 "Hg
* Reported Nov 9 5:20 AM — Nov 24 5:20 AM, Tübingen, Weather by CustomWeather, © 2014

Note: Actual official high and low records may vary slightly from our data, if they occured in-between our weather recording intervals... More about our weather records

Advertising

Tübingen weather history for previous 24 hours

 ConditionsComfort  
Time TempWeatherWind HumidityBarometerVisibility
5:20 AM
Nov 24
43 °FClear.1 mph93%30.09 "Hg10 mi
4:50 AM41 °FClear.1 mph93%30.09 "Hg10 mi
4:20 AM41 °FClear.2 mph93%30.09 "Hg10 mi
3:50 AM41 °FClear.1 mph93%30.09 "Hg10 mi
3:20 AM41 °FClear.1 mph93%30.09 "Hg10 mi
2:50 AM43 °FClear.1 mph93%30.12 "Hg10 mi
2:20 AM43 °FClear.1 mph93%30.12 "Hg10 mi
1:50 AM43 °FClear.2 mph93%30.12 "Hg10 mi
1:20 AM43 °FClear.1 mph93%30.12 "Hg10 mi
12:50 AM43 °FClear.1 mph93%30.12 "Hg10 mi
12:20 AM43 °FClear.1 mph93%30.12 "Hg10 mi
11:50 PM
Nov 23
43 °FClear.1 mph93%30.12 "Hg10 mi
11:20 PM43 °FClear.2 mph93%30.12 "Hg10 mi
10:50 PM43 °FClear.2 mph93%30.12 "Hg10 mi
10:20 PM43 °FClear.1 mph93%30.12 "Hg10 mi
9:20 PM43 °FClear.1 mph87%30.12 "Hg10 mi
8:50 PM41 °FClear.2 mph93%30.12 "Hg10 mi
8:20 PM43 °FClear.1 mph93%30.12 "Hg10 mi
7:50 PM43 °FClear.No wind93%30.12 "Hg10 mi
7:20 PM43 °FClear.3 mph93%30.12 "Hg10 mi
6:50 PM45 °FClear.2 mph87%30.12 "Hg10 mi
6:20 PM43 °FClear.2 mph93%30.12 "Hg10 mi
5:50 PM43 °FClear.3 mph93%30.12 "Hg10 mi
5:20 PM45 °FClear.6 mph87%30.12 "Hg10 mi
4:50 PM46 °FClear.5 mph87%30.12 "Hg10 mi
4:20 PM50 °FSunny.2 mph82%30.12 "Hg10 mi
3:50 PM52 °FSunny.3 mph82%30.12 "Hg10 mi
3:20 PM54 °FSunny.3 mph77%30.12 "Hg10 mi
2:50 PM54 °FSunny.3 mph77%30.12 "Hg10 mi
2:20 PM54 °FSunny.2 mph77%30.12 "Hg10 mi
1:50 PM54 °FSunny.2 mph72%30.12 "Hg10 mi
1:20 PM52 °FSunny.3 mph77%30.15 "Hg10 mi
12:50 PM50 °FSunny.5 mph88%30.15 "Hg10 mi
12:20 PM50 °FSunny.2 mph82%30.15 "Hg10 mi
11:50 AM48 °FSunny.3 mph87%30.18 "Hg10 mi
11:20 AM46 °FSunny.2 mph93%30.18 "Hg10 mi
10:50 AM45 °FSunny.2 mph93%30.21 "Hg10 mi
10:20 AM43 °FSunny.2 mph100%30.21 "Hg10 mi
9:50 AM41 °FScattered clouds.1 mph100%30.18 "HgN/A
9:20 AM36 °FScattered clouds.1 mph100%30.18 "Hg1 mi
8:50 AM34 °FFog.1 mph100%30.18 "Hg0 mi
8:20 AM34 °FFog.2 mph100%30.18 "Hg0 mi
7:50 AM34 °FFog.2 mph100%30.18 "Hg0 mi
7:20 AM36 °FFog.No wind100%30.18 "Hg1 mi
6:50 AM36 °FFog.1 mph100%30.18 "Hg1 mi
6:20 AM36 °FFog.1 mph100%30.18 "Hg0 mi
Weather by CustomWeather, © 2014

See weather overviewHow to use our weather pages